User: anonymous   Login
Location: Omaha
(41.2590°N, 95.9380°W)
Time: 23:22:12
(UTC-05:00)
Language:

Hubble Space Telescope - Orbit

View from above orbital plane
View from above orbital plane
View from above satellite
View from above satellite

Ground track
Ground track

The orbit data is extracted from the following two-line orbital elements,

1 20580U 90037B   18203.57377088 +.00000387 +00000-0 +12699-4 0  9992
2 20580 028.4683 241.1790 0002788 155.6183 338.2180 15.09068086350732
Epoch (UTC): 22 July 2018 13:46:13
Eccentricity: 0.0002788
inclination: 28.4683°
perigee height: 537 km
apogee height: 541 km
right ascension of ascending node: 241.1790°
argument of perigee: 155.6183°
revolutions per day: 15.09068086
mean anomaly at epoch: 338.2180°
orbit number at epoch: 35073

The dashed part of the orbit path shows where the satellite is in the earth's shadow,  

DLR